Meteor 1-15 Rocket - Orbit

View from above orbital plane
View from above orbital plane
View from above satellite
View from above satellite

Ground track
Ground track

The orbit data is extracted from the following two-line orbital elements,

1 06660U 73034B   13141.73409226  .00000219  00000-0  12614-3 0  7726
2 06660 081.2318 005.1247 0046257 307.6314 118.2135 14.05614750 49423
Epoch (UTC): 21 May 2013 17:37:05
Eccentricity: 0.0046257
inclination: 81.2318°
perigee height: 841 km
apogee height: 908 km
right ascension of ascending node: 5.1247°
argument of perigee: 307.6314°
revolutions per day: 14.05614750
mean anomaly at epoch: 118.2135°
orbit number at epoch: 4942

The dashed part of the orbit path shows where the satellite is in the earth's shadow,  

Developed and maintained by Chris Peat, Heavens-Above GmbH. Please read the updated FAQ before sending e-mail. Imprint. DLR